{"data":{"norad_id":65519,"intl_designator":"2025-198AD","name":"STARLINK-35164","alt_names":[],"object_type":"PAYLOAD","status":"ACTIVE","operator":null,"country":"US","launch_date":"2025-09-05","launch_site_code":"AFETR","launch_vehicle":null,"mission":null,"orbit_class":"UNKNOWN","rcs_meters":null,"size_class":null,"mass_kg":null,"dimensions":null,"purposes":["comms"],"wikipedia_slug":null,"has_3d_model":false,"image_url":null,"decayed_at":null,"tle_current":{"epoch":"2026-05-24T21:07:47.239104Z","epoch_age_seconds":88907,"freshness":"FRESH","line1":"1 65519U 25198AD  26144.88040786  .00027821  00000+0  83124-3 0  9999","line2":"2 65519  53.1589 276.4942 0001137  69.4441 290.6684 15.34409767 40299","mean_motion":15.34409767,"eccentricity":0.0001137,"inclination_deg":53.1589,"raan_deg":276.4942,"arg_perigee_deg":69.4441,"mean_anomaly_deg":290.6684,"bstar":0.00083124,"rev_number":4029,"period_min":93.847160710885,"perigee_km":461.89641054412,"apogee_km":463.45201101345,"semimajor_km":6840.8112107788,"source":"CELESTRAK","updated_at":"2026-05-25T13:38:20.845559Z"}}}